When you browse on this site, cookies collect data to enhance your experience and personalize the content and advertising you see.
Visit our Privacy Policy to learn more. By continuing to use the site, you agree to this use of cookies and data.
  • In Hungary
  • List of Countries
  • For 7 days
  • Water Temperature
  • Satellite Maps
  • Weather Map
  • News
  • Weather Widgets
  • user-avatar
    Login

    Hourly Weather Aleksandria

    Today, 21 April, Sunday

    Time Temperature Precipitation Wind Pressure Humidity
    00:00 +16°C° 0 mm 8 mps 764 mmHg 58%
    01:00 +15°C° 0 mm 8 mps 764 mmHg 57%
    02:00 +15°C° 0 mm 9 mps 763 mmHg 57%
    03:00 +15°C° 0 mm 9 mps 763 mmHg 57%
    04:00 +15°C° 0 mm 9 mps 763 mmHg 57%
    05:00 +15°C° 0 mm 9 mps 763 mmHg 58%
    06:00 +15°C° 0 mm 9 mps 763 mmHg 54%
    07:00 +16°C° 0 mm 9 mps 763 mmHg 51%
    08:00 +16°C° 0 mm 9 mps 763 mmHg 48%
    09:00 +17°C° 0 mm 9 mps 764 mmHg 47%
    10:00 +17°C° 0 mm 9 mps 764 mmHg 45%
    11:00 +18°C° 0 mm 8 mps 764 mmHg 44%
    12:00 +18°C° 0 mm 8 mps 764 mmHg 44%
    13:00 +18°C° 0 mm 8 mps 764 mmHg 45%
    14:00 +18°C° 0 mm 8 mps 764 mmHg 46%
    15:00 +18°C° 0 mm 7 mps 763 mmHg 47%
    16:00 +17°C° 0 mm 7 mps 763 mmHg 49%
    17:00 +17°C° 0 mm 7 mps 763 mmHg 51%
    18:00 +16°C° 0 mm 6 mps 764 mmHg 54%
    19:00 +15°C° 0 mm 6 mps 764 mmHg 57%
    20:00 +15°C° 0 mm 5 mps 764 mmHg 60%
    21:00 +15°C° 0 mm 5 mps 764 mmHg 62%
    22:00 +14°C° 0 mm 5 mps 764 mmHg 64%
    23:00 +14°C° 0 mm 4 mps 765 mmHg 65%

    Tomorrow, 22 April, Monday

    Time Temperature Precipitation Wind Pressure Humidity
    00:00 +14°C° 0 mm 4 mps 764 mmHg 66%
    01:00 +14°C° 0 mm 4 mps 764 mmHg 67%
    02:00 +14°C° 0 mm 4 mps 764 mmHg 68%
    03:00 +14°C° 0 mm 4 mps 763 mmHg 70%
    04:00 +14°C° 0 mm 4 mps 763 mmHg 72%
    05:00 +14°C° 0 mm 4 mps 763 mmHg 73%
    06:00 +14°C° 0 mm 5 mps 763 mmHg 69%
    07:00 +15°C° 0 mm 5 mps 763 mmHg 66%
    08:00 +16°C° 0 mm 5 mps 764 mmHg 62%
    09:00 +17°C° 0 mm 6 mps 764 mmHg 58%
    10:00 +19°C° 0 mm 6 mps 764 mmHg 53%
    11:00 +20°C° 0 mm 6 mps 764 mmHg 49%
    12:00 +20°C° 0 mm 6 mps 764 mmHg 50%
    13:00 +20°C° 0 mm 7 mps 764 mmHg 50%
    14:00 +20°C° 0 mm 7 mps 764 mmHg 50%
    15:00 +20°C° 0 mm 6 mps 764 mmHg 52%
    16:00 +19°C° 0 mm 6 mps 763 mmHg 54%
    17:00 +19°C° 0 mm 5 mps 763 mmHg 56%
    18:00 +17°C° 0 mm 5 mps 764 mmHg 59%
    19:00 +18°C° 0 mm 4 mps 764 mmHg 62%
    20:00 +17°C° 0 mm 4 mps 765 mmHg 65%
    21:00 +17°C° 0 mm 3 mps 765 mmHg 66%
    22:00 +16°C° 0 mm 3 mps 765 mmHg 66%
    23:00 +16°C° 0 mm 2 mps 766 mmHg 66%

    Day after tomorrow, 23 April, Tuesday

    Time Temperature Precipitation Wind Pressure Humidity
    00:00 +16°C° 0 mm 2 mps 765 mmHg 67%
    01:00 +15°C° 0 mm 2 mps 765 mmHg 67%
    02:00 +15°C° 0 mm 1 mps 765 mmHg 67%
    03:00 +15°C° 0 mm 2 mps 765 mmHg 68%
    04:00 +15°C° 0 mm 2 mps 765 mmHg 70%
    05:00 +14°C° 0 mm 2 mps 765 mmHg 71%
    06:00 +15°C° 0 mm 2 mps 766 mmHg 66%
    07:00 +17°C° 0 mm 2 mps 766 mmHg 60%
    08:00 +18°C° 0 mm 3 mps 766 mmHg 55%
    09:00 +20°C° 0 mm 3 mps 766 mmHg 48%
    10:00 +21°C° 0 mm 3 mps 767 mmHg 40%
    11:00 +24°C° 0 mm 3 mps 767 mmHg 33%
    12:00 +25°C° 0 mm 4 mps 767 mmHg 33%
    13:00 +26°C° 0 mm 5 mps 766 mmHg 33%
    14:00 +26°C° 0 mm 6 mps 766 mmHg 33%
    15:00 +24°C° 0 mm 6 mps 766 mmHg 34%
    16:00 +24°C° 0 mm 6 mps 766 mmHg 35%
    17:00 +23°C° 0 mm 6 mps 766 mmHg 36%
    18:00 +22°C° 0 mm 6 mps 766 mmHg 41%
    19:00 +20°C° 0 mm 6 mps 766 mmHg 45%
    20:00 +19°C° 0 mm 6 mps 767 mmHg 50%
    21:00 +17°C° 0 mm 5 mps 767 mmHg 52%
    22:00 +17°C° 0 mm 5 mps 767 mmHg 55%
    23:00 +16°C° 0 mm 5 mps 767 mmHg 58%

    24 April, Wednesday

    Time Temperature Precipitation Wind Pressure Humidity
    00:00 +16°C° 0 mm 5 mps 767 mmHg 60%
    01:00 +15°C° 0 mm 5 mps 767 mmHg 63%
    02:00 +15°C° 0 mm 4 mps 767 mmHg 66%
    03:00 +15°C° 0 mm 5 mps 766 mmHg 66%
    04:00 +15°C° 0 mm 5 mps 766 mmHg 67%
    05:00 +15°C° 0 mm 6 mps 766 mmHg 67%
    06:00 +16°C° 0 mm 6 mps 766 mmHg 58%
    07:00 +19°C° 0 mm 6 mps 766 mmHg 49%
    08:00 +21°C° 0 mm 5 mps 767 mmHg 40%
    09:00 +23°C° 0 mm 5 mps 767 mmHg 36%
    10:00 +26°C° 0 mm 5 mps 767 mmHg 31%
    11:00 +28°C° 0 mm 5 mps 767 mmHg 27%
    12:00 +28°C° 0 mm 6 mps 766 mmHg 28%
    13:00 +29°C° 0 mm 7 mps 766 mmHg 28%
    14:00 +29°C° 0 mm 8 mps 765 mmHg 28%
    15:00 +27°C° 0 mm 8 mps 765 mmHg 31%
    16:00 +26°C° 0 mm 8 mps 765 mmHg 34%
    17:00 +24°C° 0 mm 9 mps 765 mmHg 37%
    18:00 +22°C° 0 mm 8 mps 765 mmHg 41%
    19:00 +21°C° 0 mm 7 mps 765 mmHg 45%
    20:00 +20°C° 0 mm 6 mps 766 mmHg 49%
    21:00 +20°C° 0 mm 6 mps 766 mmHg 52%
    22:00 +19°C° 0 mm 5 mps 766 mmHg 54%
    23:00 +19°C° 0 mm 4 mps 766 mmHg 57%

    25 April, Thursday

    Time Temperature Precipitation Wind Pressure Humidity
    00:00 +19°C° 0 mm 4 mps 766 mmHg 57%
    01:00 +18°C° 0 mm 3 mps 765 mmHg 58%
    02:00 +18°C° 0 mm 3 mps 765 mmHg 59%
    03:00 +18°C° 0 mm 3 mps 765 mmHg 59%
    04:00 +18°C° 0 mm 3 mps 765 mmHg 59%
    05:00 +17°C° 0 mm 3 mps 765 mmHg 59%
    06:00 +19°C° 0 mm 3 mps 765 mmHg 53%
    07:00 +21°C° 0 mm 3 mps 765 mmHg 47%
    08:00 +22°C° 0 mm 3 mps 765 mmHg 41%
    09:00 +25°C° 0 mm 4 mps 765 mmHg 37%
    10:00 +27°C° 0 mm 4 mps 765 mmHg 33%
    11:00 +29°C° 0 mm 4 mps 765 mmHg 28%
    12:00 +30°C° 0 mm 5 mps 765 mmHg 27%
    13:00 +30°C° 0 mm 5 mps 764 mmHg 26%
    14:00 +32°C° 0 mm 6 mps 764 mmHg 25%
    15:00 +29°C° 0 mm 6 mps 763 mmHg 28%
    16:00 +28°C° 0 mm 6 mps 763 mmHg 32%
    17:00 +26°C° 0 mm 6 mps 763 mmHg 35%
    18:00 +25°C° 0 mm 5 mps 763 mmHg 40%
    19:00 +22°C° 0 mm 5 mps 763 mmHg 45%
    20:00 +21°C° 0 mm 4 mps 763 mmHg 51%
    21:00 +21°C° 0 mm 4 mps 763 mmHg 52%
    22:00 +20°C° 0 mm 3 mps 763 mmHg 53%
    23:00 +20°C° 0 mm 3 mps 763 mmHg 55%

    26 April, Friday

    Time Temperature Precipitation Wind Pressure Humidity
    00:00 +20°C° 0 mm 3 mps 763 mmHg 55%
    01:00 +19°C° 0 mm 2 mps 763 mmHg 56%
    02:00 +19°C° 0 mm 2 mps 762 mmHg 57%
    03:00 +19°C° 0 mm 2 mps 762 mmHg 57%
    04:00 +19°C° 0 mm 2 mps 762 mmHg 58%
    05:00 +18°C° 0 mm 2 mps 762 mmHg 59%
    06:00 +20°C° 0 mm 2 mps 762 mmHg 54%
    07:00 +21°C° 0 mm 2 mps 762 mmHg 49%
    08:00 +24°C° 0 mm 3 mps 762 mmHg 44%
    09:00 +25°C° 0 mm 3 mps 762 mmHg 39%
    10:00 +27°C° 0 mm 3 mps 762 mmHg 33%
    11:00 +29°C° 0 mm 3 mps 762 mmHg 28%
    12:00 +29°C° 0 mm 4 mps 761 mmHg 28%
    13:00 +29°C° 0 mm 4 mps 761 mmHg 28%
    14:00 +29°C° 0 mm 5 mps 760 mmHg 28%
    15:00 +28°C° 0 mm 5 mps 760 mmHg 32%
    16:00 +27°C° 0 mm 5 mps 760 mmHg 37%
    17:00 +26°C° 0 mm 5 mps 760 mmHg 41%
    18:00 +25°C° 0 mm 5 mps 760 mmHg 47%
    19:00 +23°C° 0 mm 5 mps 760 mmHg 53%
    20:00 +21°C° 0 mm 4 mps 761 mmHg 60%
    21:00 +21°C° 0 mm 4 mps 761 mmHg 63%
    22:00 +21°C° 0 mm 4 mps 761 mmHg 66%
    23:00 +20°C° 0 mm 3 mps 761 mmHg 69%
    Show more